| time (UTC) | temp F | wind direction | speed knots | gust knots | rain 1hr in | rain 24hr in | rain mn in | humidity % | barometer mb |
| 20260504050004 | 61 | 0 | 0.0 | 0.0 | 0.00 | 0.00 | 0.00 | 71 | 1017.9 |
| 20260504043003 | 62 | 0 | 0.0 | 0.0 | 0.00 | 0.00 | 0.00 | 66 | 1018.1 |
| 20260504040003 | 64 | 0 | 0.0 | 0.0 | 0.00 | 0.00 | 0.00 | 62 | 1018.0 |
| 20260504033003 | 66 | 0 | 0.0 | 0.0 | 0.00 | 0.00 | 0.00 | 60 | 1018.2 |
| 20260504030218 | 67 | 0 | 0.0 | 0.0 | 0.00 | 0.00 | 0.00 | 59 | 1017.9 |
| 20260504023003 | 68 | 0 | 0.0 | 0.0 | 0.00 | 0.00 | 0.00 | 57 | 1017.9 |
| 20260504020218 | 70 | 0 | 0.0 | 0.0 | 0.00 | 0.00 | 0.00 | 55 | 1017.8 |
| 20260504013003 | 71 | 142 | 0.0 | 1.7 | 0.00 | 0.00 | 0.00 | 52 | 1017.8 |
| 20260504010217 | 72 | 131 | 0.0 | 3.5 | 0.00 | 0.00 | 0.00 | 49 | 1017.6 |
| 20260504003217 | 74 | 136 | 0.0 | 4.3 | 0.00 | 0.00 | 0.00 | 46 | 1017.6 |
| 20260504000003 | 75 | 133 | 0.9 | 6.1 | 0.00 | 0.00 | 0.00 | 43 | 1017.7 |
| 20260503233217 | 77 | 124 | 0.0 | 7.8 | 0.00 | 0.00 | 0.00 | 41 | 1017.9 |
| 20260503230217 | 79 | 0 | 0.0 | 0.0 | 0.00 | 0.00 | 0.00 | 39 | 1018.0 |
| 20260503223003 | 80 | 138 | 0.9 | 7.0 | 0.00 | 0.00 | 0.00 | 38 | 1018.4 |
| 20260503220003 | 80 | 131 | 0.9 | 4.3 | 0.00 | 0.00 | 0.00 | 35 | 1018.3 |
| 20260503213003 | 82 | 0 | 0.0 | 0.0 | 0.00 | 0.00 | 0.00 | 34 | 1018.7 |
| 20260503210003 | 82 | 0 | 0.0 | 0.0 | 0.00 | 0.00 | 0.00 | 34 | 1019.1 |
| 20260503203003 | 82 | 125 | 0.0 | 1.7 | 0.00 | 0.00 | 0.00 | 33 | 1019.6 |
| 20260503200218 | 82 | 126 | 0.0 | 0.9 | 0.00 | 0.00 | 0.00 | 34 | 1020.1 |
| 20260503193217 | 82 | 143 | 0.0 | 3.5 | 0.00 | 0.00 | 0.00 | 33 | 1020.5 |
| 20260503190003 | 82 | 163 | 0.0 | 2.6 | 0.00 | 0.00 | 0.00 | 31 | 1021.0 |
| 20260503183003 | 81 | 0 | 0.0 | 0.0 | 0.00 | 0.00 | 0.00 | 30 | 1021.4 |
| 20260503180003 | 81 | 0 | 0.0 | 0.0 | 0.00 | 0.00 | 0.00 | 34 | 1021.7 |
| 20260503173003 | 80 | 0 | 0.0 | 0.0 | 0.00 | 0.00 | 0.00 | 33 | 1022.2 |